Location: Contre
(49.7477°N, 2.0963°E)
Time: 15:46:27
(UTC+00:00)

Envisat - Pass Details

Date: 04 March 2024
Orbit: 762 x 764 km, 98.3° (Epoch: 22 April)

Event Time Altitude Azimuth Distance (km) Brightness Sun altitude
Rises 05:05:49 0° 3° (N) 3,244 6.4 -14.0°
Reaches altitude 10° 05:08:49 10° 344° (NNW) 2,313 5.4 -13.5°
Maximum altitude 05:12:06 18° 304° (NW) 1,837 4.5 -13.0°
Enters shadow 05:13:23 16° 286° (WNW) 1,915 4.5 -12.8°
